Regional Weather Roundup
Issued by NWS

Home | Current Version | Previous Version | Text Only | Print | Product List | Glossary Off
Versions: 1 2 3 4 5 6 7 8 9 10 11 12 13 14 15 16 17 18 19 20 21 22 23 24 25 26 27 28 29 30 31 32 33 34 35 36 37 38 39 40 41 42 43 44 45 46 47 48 49 50

483
ASUS43 KMKX 161059
RWRWI

WISCONSIN REGIONAL WEATHER ROUNDUP
NATIONAL WEATHER SERVICE MILWAUKEE/SULLIVAN WI
500 AM CST TUE JAN 16 2018

NOTE: "FAIR" INDICATES FEW OR NO CLOUDS BELOW 12,000 FEET WITH NO
SIGNIFICANT WEATHER AND/OR OBSTRUCTIONS TO VISIBILITY.

WIZ001-002-006>008-014>016-023>028-161200-
NORTHWEST WISCONSIN

CITY           SKY/WX    TMP DP  RH WIND       PRES   REMARKS
SUPERIOR ARPT  CLOUDY     4  -1  77 W7        30.64S WCI  -8
ASHLAND        FLURRIES  18  13  80 NW8       30.56S WCI   8
HAYWARD        LGT SNOW   9   5  84 CALM      30.54R FOG
SIREN          FLURRIES   4   0  83 N6        30.60S WCI  -7
CUMBERLAND     CLOUDY     5   1  85 N12G17    30.54S WCI -11
RICE LAKE      LGT SNOW   5   2  86 CALM      30.57R
CHETEK         FLURRIES   3  -1  85 MISG      30.55R
LADYSMITH      LGT SNOW  10   7  89 NW7       30.51R WCI  -2
EAU CLAIRE     NOT AVBL
MENOMONIE      FAIR       5   1  84 NW8       30.56S WCI  -8
NEW RICHMOND   CLOUDY     2  -2  81 NW13      30.59R WCI -15
OSCEOLA        CLOUDY     3  -1  81 N7        30.65R WCI  -9
$$

WIZ003>005-009-010-017-018-161200-
NORTH CENTRAL WISCONSIN

CITY           SKY/WX    TMP DP  RH WIND       PRES   REMARKS
MANITOWISH WTR LGT SNOW   5   3  92 NW3       30.43R
ARBOR VITAE    CLOUDY     4   1  86 CALM      30.42R
WOODRUFF       CLOUDY     4   1  86 CALM      30.42R
RHINELANDER    FAIR       8   5  87 N3        30.41S
EAGLE RIVER    FLURRIES   0  -4  84 CALM      30.41R
LAND O LAKES   LGT SNOW  10   7  90 N5        30.42S WCI   1
PHILLIPS       CLOUDY    -3  -6  88 CALM      30.45S
TOMAHAWK       FAIR      -6 -10  83 CALM      30.44R
MEDFORD        FAIR       6   3  88 N6        30.43R WCI  -5
MERRILL        FAIR       0  -3  87 CALM      30.45R
$$

WIZ029-030-035-036-043>047-161200-
CENTRAL WISCONSIN

CITY           SKY/WX    TMP DP  RH WIND       PRES   REMARKS
WAUSAU         FAIR       7   5  91 NW8       30.43R WCI  -6
MOSINEE        FLURRIES  10   9  92 N6        30.44R WCI   1
MARSHFIELD     FAIR       8   5  87 N7        30.44R WCI  -3
STEVENS POINT  FAIR       6   4  94 CALM      30.45R
WAUPACA        CLOUDY    15  11  81 N8        30.44R WCI   5
WAUTOMA        CLOUDY    12   8  84 NW7       30.45R WCI   1
WISC RAPIDS    FAIR       8   4  83 N7        30.47R WCI  -3
CAMP DOUGLAS   FAIR     N/A N/A N/A CALM      30.49R
$$

WIZ011>013-019>022-031-037>040-048>050-161200-
NORTHEAST WISCONSIN

CITY           SKY/WX    TMP DP  RH WIND       PRES   REMARKS
ANTIGO         FAIR       2   0  91 NW3       30.41R
SHAWANO        FAIR      11   7  86 CALM      30.45R
OCONTO         CLOUDY    11   7  84 N6        30.44R WCI   2
STURGEON BAY   FLURRIES   8   5  87 N15       30.43R WCI  -9
GREEN BAY      CLOUDY    13   9  84 N10       30.44R WCI   0
MANITOWOC      LGT SNOW  18  15  88 N13       30.39S FOG     WCI   5
APPLETON       CLOUDY    16  10  79 N12       30.39R WCI   3
CLINTONVILLE   FAIR      12   9  85 N7        30.44R WCI   2
OSHKOSH        CLOUDY    15  12  88 N12       30.41R WCI   2
$$

WIZ032>034-041-042-053>061-161200-
SOUTHWEST WISCONSIN

CITY           SKY/WX    TMP DP  RH WIND       PRES   REMARKS
LA CROSSE      CLOUDY     8   3  80 N6        30.54S WCI  -2
SPARTA         FLURRIES   9   7  89 W3        30.51S
VIROQUA        CLOUDY     7   6  93 NW12      30.46R WCI  -8
BOSCOBEL       FAIR       7   2  80 W5        30.52R WCI  -2
PRAIRIE DU CHI FAIR       5  -1  78 W5        30.53R WCI  -4
PLATTEVILLE    MOCLDY     8   5  89 NW9       30.45S WCI  -6
$$

WIZ056-057-062-063-064-067-068-161200-
SOUTH CENTRAL WISCONSIN

CITY           SKY/WX    TMP DP  RH WIND       PRES   REMARKS
REEDSBURG      FLURRIES   7   4  91 W7        30.45R WCI  -5
BARABOO/DELLS  MOCLDY    10   7  89 NW7       30.43R WCI  -2
LONE ROCK      NOT AVBL
MINERAL POINT  FLURRIES   9   9 100 NW8       30.42R WCI  -4
MADISON        FAIR      12   8  84 NW9       30.42R WCI   0
MIDDLETON      MOCLDY    13  10  85 NW9       30.42R WCI   1
WATERTOWN      CLOUDY    13  13  96 N7        30.39R WCI   3
MONROE         FLURRIES  12   9  85 NW9       30.39R WCI   0
JANESVILLE     FLURRIES  18  14  86 NW10      30.40R WCI   6
$$

WIZ051-052-058>065-066-070>072-161200-
SOUTHEAST WISCONSIN

CITY           SKY/WX    TMP DP  RH WIND       PRES   REMARKS
MILWAUKEE      LGT SNOW  20  17  88 NW10      30.36R FOG     WCI   9
WAUKESHA       CLOUDY    16  12  86 NW8       30.37R WCI   5
MILWAUKEE/TIMM CLOUDY    18  12  79 N9        30.37R WCI   6
RACINE         LGT SNOW  20  17  88 NW7       30.36R FOG     WCI  11
BURLINGTON     FAIR      16  12  84 NW9       30.36R WCI   4
KENOSHA        LGT SNOW  19  15  84 NW8       30.35R FOG     WCI   9
FOND DU LAC    FLURRIES  15  10  80 N7        30.41R WCI   5
SHEBOYGAN      LGT SNOW  17  14  88 N12       30.37S FOG     WCI   4
WEST BEND      CLOUDY    18  14  86 N8        30.37R WCI   7
JUNEAU         CLOUDY    13  10  87 NW9       30.39S WCI   1
$$

LSZ147-162-161200-
LAKE SUPERIOR

STATION/POSITION TIME  TEMP    WIND        PRES    WAVE
                       AIR SEA DIR/SP/G            HT/PER
                 (UTC) (F)     (DEG/KT/KT) (MB)    (FT/S)
DEVILS ISLAND    1000   19     360/ 10/ 13 1036.6R
SAXON HARBOR     1040   23      20/ 15/ 20 1033.2S
$$

LMZ867-665-643>646-161200-
LAKE MICHIGAN

STATION/POSITION TIME  TEMP    WIND        PRES    WAVE
                       AIR SEA DIR/SP/G            HT/PER
                 (UTC) (F)     (DEG/KT/KT) (MB)    (FT/S)
NORTHPORT PIER   1040   13      CALM  /  2 1030.1S
KEWAUNEE LAKESHO 1030   15     330/  8/ 14 1028.3R
SHEBOYGAN LAKESH 1000   18     330/ 14/ 16 1029.4R
PORT WASHINGTON  1030   18     320/  8/ 12 1029.5R
MILWAUKEE LAKESH 1030   19     320/ 10/ 13   N/A
KENOSHA   LAKESH 1000   20     320/ 10/ 13 1027.1
$$

TC  - TEMPERATURE IN CELSIUS
VSB - VISIBILITY IN STATUTE MILES
WCI - WIND CHILL INDEX
HX  - HEAT INDEX





USA.gov is the U.S. government's official web portal to all federal, state and local government web resources and services.